TimeCDT,TemperatureF,Dew PointF,Humidity,Sea Level PressureIn,VisibilityMPH,Wind Direction,Wind SpeedMPH,Gust SpeedMPH,PrecipitationIn,Events,Conditions,WindDirDegrees,DateUTC
12:15 AM,60.8,55.4,82,30.04,10.0,Calm,Calm,-,N/A,,Clear,0,2013-09-27 05:15:00
12:35 AM,60.8,55.4,82,30.04,10.0,Calm,Calm,-,N/A,,Clear,0,2013-09-27 05:35:00
12:55 AM,59.0,55.4,88,30.04,10.0,Calm,Calm,-,N/A,,Clear,0,2013-09-27 05:55:00
1:15 AM,59.0,53.6,82,30.04,10.0,Calm,Calm,-,N/A,,Clear,0,2013-09-27 06:15:00
1:35 AM,57.2,53.6,88,30.04,10.0,Calm,Calm,-,N/A,,Clear,0,2013-09-27 06:35:00
1:55 AM,57.2,53.6,88,30.05,10.0,Calm,Calm,-,N/A,,Clear,0,2013-09-27 06:55:00
2:15 AM,57.2,53.6,88,30.05,10.0,Calm,Calm,-,N/A,,Clear,0,2013-09-27 07:15:00
2:35 AM,57.2,53.6,88,30.05,10.0,Calm,Calm,-,N/A,,Clear,0,2013-09-27 07:35:00
2:55 AM,57.2,53.6,88,30.05,7.0,Calm,Calm,-,N/A,,Clear,0,2013-09-27 07:55:00
3:15 AM,57.2,53.6,88,30.05,10.0,Calm,Calm,-,N/A,,Clear,0,2013-09-27 08:15:00
3:35 AM,57.2,53.6,88,30.06,10.0,Calm,Calm,-,N/A,,Clear,0,2013-09-27 08:35:00
3:55 AM,57.2,51.8,82,30.06,10.0,Calm,Calm,-,N/A,,Clear,0,2013-09-27 08:55:00
4:15 AM,55.4,51.8,88,30.06,7.0,Calm,Calm,-,N/A,,Clear,0,2013-09-27 09:15:00
4:35 AM,55.4,51.8,88,30.07,10.0,Calm,Calm,-,N/A,,Clear,0,2013-09-27 09:35:00
4:55 AM,55.4,51.8,88,30.07,7.0,Calm,Calm,-,N/A,,Clear,0,2013-09-27 09:55:00
5:15 AM,55.4,51.8,88,30.08,7.0,Calm,Calm,-,N/A,,Clear,0,2013-09-27 10:15:00
5:35 AM,57.2,53.6,88,30.08,7.0,ESE,3.5,-,N/A,,Clear,120,2013-09-27 10:35:00
5:55 AM,57.2,51.8,82,30.09,7.0,Calm,Calm,-,N/A,,Clear,0,2013-09-27 10:55:00
6:15 AM,55.4,51.8,88,30.10,7.0,Calm,Calm,-,N/A,,Clear,0,2013-09-27 11:15:00
6:35 AM,55.4,51.8,88,30.10,7.0,Calm,Calm,-,N/A,,Clear,0,2013-09-27 11:35:00
6:55 AM,55.4,51.8,88,30.11,5.0,Calm,Calm,-,N/A,,Clear,0,2013-09-27 11:55:00
7:15 AM,55.4,51.8,88,30.11,5.0,Calm,Calm,-,N/A,,Clear,0,2013-09-27 12:15:00
7:35 AM,57.2,53.6,88,30.12,5.0,Calm,Calm,-,N/A,,Clear,0,2013-09-27 12:35:00
7:55 AM,60.8,57.2,88,30.12,4.0,ESE,3.5,-,N/A,,Clear,110,2013-09-27 12:55:00
8:15 AM,62.6,57.2,82,30.12,4.0,ESE,4.6,-,N/A,,Haze,120,2013-09-27 13:15:00
8:35 AM,64.4,57.2,77,30.12,3.0,ESE,5.8,-,N/A,,Haze,120,2013-09-27 13:35:00
8:55 AM,66.2,60.8,83,30.12,5.0,ESE,4.6,-,N/A,,Haze,120,2013-09-27 13:55:00
9:15 AM,69.8,60.8,73,30.13,10.0,SSE,3.5,-,N/A,,Clear,160,2013-09-27 14:15:00
9:35 AM,71.6,60.8,69,30.13,10.0,SSE,5.8,-,N/A,,Clear,150,2013-09-27 14:35:00
9:55 AM,73.4,60.8,65,30.13,10.0,SSE,3.5,-,N/A,,Clear,160,2013-09-27 14:55:00
10:15 AM,75.2,59.0,57,30.13,10.0,SSE,3.5,-,N/A,,Clear,160,2013-09-27 15:15:00
10:35 AM,75.2,59.0,57,30.13,10.0,SSE,4.6,-,N/A,,Clear,160,2013-09-27 15:35:00
10:55 AM,78.8,57.2,47,30.13,5.0,SSE,4.6,-,N/A,,Haze,150,2013-09-27 15:55:00
11:15 AM,78.8,55.4,44,30.12,10.0,SSE,5.8,-,N/A,,Clear,150,2013-09-27 16:15:00
11:35 AM,78.8,55.4,44,30.12,10.0,Calm,Calm,-,N/A,,Clear,0,2013-09-27 16:35:00
11:55 AM,80.6,55.4,42,30.11,10.0,Calm,Calm,-,N/A,,Scattered Clouds,0,2013-09-27 16:55:00
12:15 PM,80.6,53.6,39,30.11,10.0,SE,6.9,-,N/A,,Clear,140,2013-09-27 17:15:00
12:35 PM,80.6,53.6,39,30.10,10.0,East,5.8,-,N/A,,Clear,90,2013-09-27 17:35:00
12:55 PM,80.6,51.8,37,30.09,10.0,East,4.6,-,N/A,,Clear,100,2013-09-27 17:55:00
1:15 PM,82.4,48.2,30,30.08,10.0,SSE,5.8,-,N/A,,Clear,150,2013-09-27 18:15:00
1:35 PM,82.4,48.2,30,30.07,10.0,East,8.1,-,N/A,,Clear,100,2013-09-27 18:35:00
1:55 PM,82.4,46.4,28,30.07,10.0,SE,8.1,-,N/A,,Clear,130,2013-09-27 18:55:00
2:15 PM,82.4,48.2,30,30.06,10.0,ESE,5.8,-,N/A,,Clear,110,2013-09-27 19:15:00
2:35 PM,82.4,46.4,28,30.05,10.0,SE,10.4,-,N/A,,Clear,130,2013-09-27 19:35:00
2:55 PM,84.2,44.6,25,30.04,10.0,ESE,8.1,-,N/A,,Clear,110,2013-09-27 19:55:00
3:15 PM,84.2,44.6,25,30.04,10.0,SE,11.5,16.1,N/A,,Clear,130,2013-09-27 20:15:00
3:35 PM,82.4,44.6,26,30.03,10.0,ESE,11.5,-,N/A,,Clear,120,2013-09-27 20:35:00
3:55 PM,84.2,42.8,23,30.03,10.0,ESE,8.1,-,N/A,,Clear,110,2013-09-27 20:55:00
4:15 PM,84.2,42.8,23,30.03,10.0,ESE,8.1,-,N/A,,Clear,110,2013-09-27 21:15:00
4:35 PM,84.2,42.8,23,30.03,10.0,ESE,8.1,-,N/A,,Clear,120,2013-09-27 21:35:00
4:55 PM,82.4,42.8,25,30.03,10.0,SE,8.1,-,N/A,,Clear,140,2013-09-27 21:55:00
5:15 PM,82.4,41.0,23,30.03,10.0,SE,6.9,-,N/A,,Clear,130,2013-09-27 22:15:00
5:35 PM,82.4,42.8,25,30.03,10.0,SE,8.1,-,N/A,,Clear,140,2013-09-27 22:35:00
5:55 PM,80.6,42.8,26,30.03,10.0,SE,5.8,-,N/A,,Clear,140,2013-09-27 22:55:00
6:15 PM,78.8,44.6,30,30.04,10.0,Calm,Calm,-,N/A,,Clear,0,2013-09-27 23:15:00
6:35 PM,75.2,48.2,38,30.04,10.0,ESE,4.6,-,N/A,,Clear,120,2013-09-27 23:35:00
6:55 PM,73.4,48.2,41,30.04,10.0,Calm,Calm,-,N/A,,Clear,0,2013-09-27 23:55:00
7:15 PM,71.6,50.0,46,30.04,10.0,ESE,3.5,-,N/A,,Clear,120,2013-09-28 00:15:00
7:35 PM,68.0,51.8,56,30.04,10.0,SE,3.5,-,N/A,,Clear,130,2013-09-28 00:35:00
7:55 PM,69.8,51.8,53,30.04,10.0,SE,3.5,-,N/A,,Clear,130,2013-09-28 00:55:00
8:15 PM,68.0,51.8,56,30.05,10.0,SE,3.5,-,N/A,,Clear,130,2013-09-28 01:15:00
8:35 PM,66.2,51.8,60,30.05,10.0,ESE,3.5,-,N/A,,Clear,120,2013-09-28 01:35:00
8:55 PM,62.6,51.8,68,30.06,10.0,ESE,4.6,-,N/A,,Clear,120,2013-09-28 01:55:00
9:15 PM,66.2,53.6,64,30.06,10.0,SE,3.5,-,N/A,,Clear,140,2013-09-28 02:15:00
9:35 PM,66.2,53.6,64,30.06,10.0,SE,3.5,-,N/A,,Clear,130,2013-09-28 02:35:00
9:55 PM,64.4,53.6,68,30.06,10.0,SE,3.5,-,N/A,,Clear,130,2013-09-28 02:55:00
10:15 PM,62.6,53.6,72,30.06,10.0,SE,3.5,-,N/A,,Clear,130,2013-09-28 03:15:00
10:35 PM,64.4,53.6,68,30.06,10.0,SE,4.6,-,N/A,,Clear,130,2013-09-28 03:35:00
10:55 PM,64.4,53.6,68,30.05,10.0,SE,3.5,-,N/A,,Clear,130,2013-09-28 03:55:00
11:15 PM,62.6,53.6,72,30.06,10.0,SE,3.5,-,N/A,,Clear,140,2013-09-28 04:15:00
11:35 PM,64.4,53.6,68,30.06,10.0,SE,3.5,-,N/A,,Clear,140,2013-09-28 04:35:00
11:55 PM,62.6,53.6,72,30.05,10.0,SE,4.6,-,N/A,,Clear,130,2013-09-28 04:55:00